DELTA 1 DEB, 7026

Orbit data source: Space-Track

DELTA 1 DEB, 7026 is space debris in SSO originally from a launch on Tue, 06 Nov 1973 UTC launched from the Air Force Western Test Range (AFWTR). Debris objects in space refer to the collection of defunct objects orbiting the Earth. Examples of debris include non-operational satellites, rocket bodies, and fragments generated from explosions, collisions, or faulty payload assembly.

Loading next visibility...
Identifier
7026, 1973-086S
Orbit
SSO
Country
Flag of USUS
Related business
Manufacturer
Unknown
Mission
Spacecraft
Bus & Motor
Unknown
Mass
Unknown
Launch date (UTC)
1973-11-06 (53 years ago)
Launch vehicle
Unknown
Launch site
Air Force Western Test Range (AFWTR)
Object type
Payload
Rocket body
Debris
Shape & HBR
Unknown shape, 0.1 m
Radar Cross Section
Medium (>0.1 m² and <1 m²)

Expand to show TLE details & history
Last TLE update: 16 hours ago

TLE from 16 hours ago
0 DELTA 1 DEB
1 07026U 73086S   26263.25008332  .00000931  00000-0  51960-2 0  9997
2 07026 102.0919  23.2099 0124324 321.0003 103.9701 12.63956361426644
Epoch: 2026-09-20T06:00Z
TLE epoch observation values (Epoch: 2026-09-20T06:00:07.198Z)
Latitude
63.68214°
Longitude
-91.49794°
Altitude
1,441.927 km
Speed
7.135 km/s
True Right ascension
23h 50m 42s
True Declination
63° 33' 26"
Sunlit
Object was in daylight at epoch
Visualization orbit readout
Latitude
Unknown
Longitude
Unknown
Altitude
Unknown
Speed
Unknown
Apparent Right ascension
Unknown
Apparent Declination
Unknown
Sunlit
N/A
Visualization observer readout
Local Sidereal Time
15:01:34
Azimuth
Unknown
Elevation
Unknown
Doppler factor
Unknown
Orbital elements
Apogee altitude
1,500.959 km
Perigee altitude
1,307.452 km
Semi-major axis
7,782.342 km
Eccentricity
0.01243
Inclination
102.0919°
RAAN
23.2099°
Arg. of periapsis
321.0003°
True anomaly
105.34731°
Mean anomaly
103.9701°
Eccentric anomaly
104.65924°
Mean motion
3.16139 °/min
Orbital period
113.87 mins
BSTAR
0.005196
Loading maneuver chart data...
Computing Atmospheric mass density...
Loading historical data...
Loading historical data...
Loading historical data...
Loading historical data...
Loading historical data...
Loading historical data...
Loading historical data...

Documentation

Showing up to 5 results
|